THORAD DELTA 1 DEB, 8164

Orbit data source: Space-Track

THORAD DELTA 1 DEB, 8164 is space debris in SSO originally from a launch on Fri, 15 Nov 1974 UTC launched from the Air Force Western Test Range (AFWTR). Debris objects in space refer to the collection of defunct objects orbiting the Earth. Examples of debris include non-operational satellites, rocket bodies, and fragments generated from explosions, collisions, or faulty payload assembly.

Loading next visibility...
THORAD DELTA 1 DEB details
Identifier
8164, 1974-089AE
Orbit
SSO
Last TLE update17 hours ago
Origin
Flag of USGSFC (US)
ManufacturerUnknown
MissionSpacecraft
Bus & MotorUnknown
MassUnknown
Launch date (UTC)
1974-11-15 (50 years ago)
Launch vehicleUnknown
Launch site
Air Force Western Test Range (AFWTR)
Object type
Payload
Rocket body
Debris
Shape & HBRUnknown
Radar Cross SectionMedium (>0.1 m² and <1 m²)

Expand to show TLE details & history

TLE from 17 hours ago
0 THORAD DELTA 1 DEB
1 08164U 74089AE  25023.89001723 -.00000014  00000-0  22949-3 0  9994
2 08164 101.5594 171.4155 0121012 216.7099 313.2052 12.28962808252046
Epoch: 2025-01-23T21:21Z
Definitive object data (Epoch: 2025-01-23T21:21:37.488Z)
Latitude10.83484°
Longitude-90.21932°
Altitude1,490.449 km
Speed7.149 km/s
True Right ascension23h 34m 35s
True Declination10° 46' 39"
Sunlit
Object was in daylight at TLE epoch
Visualization TLE readout
Latitude76.15668°
Longitude32.5211°
Altitude1,631.62 km
Speed7.033 km/s
Apparent Right ascension04h 48m 12s
Apparent Declination31° 11' 33"
Sunlit
Object is in daylight
Visualization observer readout
Local Sidereal Time15:44:34
Azimuth345.778° N
Elevation-17.376°
Doppler factor1
Orbital elements
Apogee altitude1,647.26 km
Perigee altitude1,455.348 km
Semi-major axis7,929.441 km
Eccentricity0.0121012
Inclination101.5594°
RAAN171.4155°
Arg. of periapsis216.7099°
True anomaly312.18391°
Mean anomaly313.2052°
Eccentric anomaly312.69561°
Mean motion3.07383 °/min
BSTAR0.00022949
Orbital period117.12 mins
Loading maneuver chart data...

THORAD DELTA 1 DEB Visibility forecast

Observer location: undefined°, undefined

Span
Click to sort rows by Start time (UTC) header in descending order
Start Az.
Max El. time (UTC)
Max El. Az.
Max El.
End time (UTC)
End Az.
6 mins2025-01-24 20:36:23.572Z63.395° ENE2025-01-24 20:39:23.572Z84.444° E12.771°2025-01-24 20:42:23.572Z106.314° ESE
16 mins2025-01-24 22:28:23.572Z20.972° NNE2025-01-24 22:36:23.572Z119.443° SE44.029°2025-01-24 22:44:23.572Z191.374° SSW
11 mins2025-01-25 00:25:23.572Z347.728° N2025-01-25 00:30:23.572Z304.8° NW24.086°2025-01-25 00:36:23.572Z256.757° W
13 mins2025-01-25 07:46:23.572Z102.347° ESE2025-01-25 07:52:23.572Z56.097° ENE24.959°2025-01-25 07:59:23.572Z3.486° NNE
17 mins2025-01-25 09:38:23.572Z168.055° S2025-01-25 09:46:23.572Z239.396° WSW44.265°2025-01-25 09:55:23.572Z340.064° N
8 mins2025-01-25 11:39:23.572Z247.624° W2025-01-25 11:42:23.572Z268.346° W14.562°2025-01-25 11:47:23.572Z302.323° NW
|